TimeEDT,TemperatureF,Dew PointF,Humidity,Sea Level PressureIn,VisibilityMPH,Wind Direction,Wind SpeedMPH,Gust SpeedMPH,PrecipitationIn,Events,Conditions,WindDirDegrees,DateUTC
12:51 AM,69.1,55.0,61,29.94,10.0,SW,11.5,-,N/A,,Partly Cloudy,230,2013-04-10 04:51:00
1:51 AM,68.0,55.9,65,29.94,10.0,SW,9.2,-,N/A,,Clear,230,2013-04-10 05:51:00
2:51 AM,66.9,55.9,68,29.93,10.0,SSW,6.9,-,N/A,,Partly Cloudy,210,2013-04-10 06:51:00
3:51 AM,66.0,55.9,70,29.92,10.0,South,5.8,-,N/A,,Mostly Cloudy,190,2013-04-10 07:51:00
4:51 AM,64.9,55.9,73,29.91,10.0,South,6.9,-,N/A,,Partly Cloudy,190,2013-04-10 08:51:00
5:51 AM,64.9,57.0,75,29.91,10.0,SSW,6.9,-,N/A,,Partly Cloudy,200,2013-04-10 09:51:00
6:51 AM,66.0,57.0,73,29.92,10.0,SSW,6.9,-,N/A,,Overcast,200,2013-04-10 10:51:00
7:51 AM,66.9,57.0,70,29.92,10.0,SSW,11.5,-,N/A,,Mostly Cloudy,200,2013-04-10 11:51:00
8:51 AM,69.1,57.0,65,29.92,10.0,SSW,17.3,-,N/A,,Mostly Cloudy,210,2013-04-10 12:51:00
9:51 AM,73.0,57.0,57,29.91,10.0,SSW,16.1,21.9,N/A,,Mostly Cloudy,210,2013-04-10 13:51:00
10:51 AM,75.9,57.9,54,29.90,10.0,SW,21.9,29.9,N/A,,Overcast,230,2013-04-10 14:51:00
11:49 AM,75.2,60.8,61,29.92,2.0,WSW,19.6,26.5,0.00,Rain-Thunderstorm,Thunderstorms and Rain,240,2013-04-10 15:49:00
11:51 AM,75.0,61.0,62,29.91,2.0,WSW,20.7,26.5,0.00,Rain-Thunderstorm,Thunderstorms and Rain,240,2013-04-10 15:51:00
11:54 AM,73.4,62.6,69,29.91,1.0,SW,19.6,27.6,0.02,Rain-Thunderstorm,Thunderstorms and Rain,220,2013-04-10 15:54:00
11:56 AM,71.6,64.4,78,29.91,5.0,SW,15.0,27.6,0.10,Rain-Thunderstorm,Thunderstorms and Rain,220,2013-04-10 15:56:00
12:06 PM,71.6,64.4,78,29.91,5.0,WSW,5.8,21.9,0.22,,Haze,250,2013-04-10 16:06:00
12:51 PM,75.9,62.1,62,29.88,10.0,SW,20.7,28.8,0.22,,Overcast,220,2013-04-10 16:51:00
1:51 PM,75.9,62.1,62,29.88,10.0,SW,13.8,24.2,0.00,,Overcast,220,2013-04-10 17:51:00
2:51 PM,81.0,63.0,54,29.84,10.0,SSW,21.9,26.5,N/A,,Mostly Cloudy,210,2013-04-10 18:51:00
3:51 PM,82.0,63.0,52,29.81,10.0,SSW,21.9,28.8,N/A,,Overcast,210,2013-04-10 19:51:00
4:51 PM,81.0,60.1,49,29.81,10.0,SW,23.0,33.4,N/A,,Overcast,230,2013-04-10 20:51:00
5:51 PM,82.0,60.1,47,29.78,10.0,SW,18.4,32.2,N/A,,Overcast,230,2013-04-10 21:51:00
6:51 PM,80.1,59.0,48,29.79,10.0,SSW,18.4,24.2,N/A,,Overcast,210,2013-04-10 22:51:00
7:33 PM,69.8,57.2,64,29.87,10.0,NNW,36.8,54.1,N/A,,Overcast,330,2013-04-10 23:33:00
7:51 PM,66.0,57.0,73,29.86,10.0,North,18.4,33.4,0.00,Rain,Light Rain,350,2013-04-10 23:51:00
8:51 PM,62.1,57.9,86,29.87,10.0,NNE,8.1,-,0.00,,Overcast,20,2013-04-11 00:51:00
9:51 PM,62.1,57.0,84,29.84,10.0,East,8.1,-,N/A,,Overcast,90,2013-04-11 01:51:00
10:51 PM,60.8,57.2,88,29.85,10.0,East,4.6,-,N/A,,Overcast,90,2013-04-11 02:51:00
11:51 PM,62.1,57.9,86,29.87,10.0,North,5.8,-,N/A,,Overcast,350,2013-04-11 03:51:00